Regional Weather Roundup
Issued by NWS

Home | Current Version | Previous Version | Graphics & Text | Print | Product List | Glossary On
Versions: 1 2 3 4 5 6 7 8 9 10 11 12 13 14 15 16 17 18 19 20 21 22 23 24 25 26 27 28 29 30 31 32 33 34 35 36 37 38 39 40 41 42 43 44 45 46 47 48 49 50
000
ASUS45 KPSR 230410
RWRAZ

ARIZONA REGIONAL HOURLY WEATHER ROUNDUP
NATIONAL WEATHER SERVICE PHOENIX AZ
900 PM MST WED OCT 22 2014

NOTE: FAIR INDICATES FEW OR NO CLOUDS BELOW 12,000 FEET WITH NO
SIGNIFICANT WEATHER AND/OR OBSTRUCTIONS TO VISIBILITY.

AZZ001>003-036-230500-
NORTHWEST ARIZONA

CITY           SKY/WX    TMP DP  RH WIND       PRES   REMARKS
BULLHEAD CITY  MOCLDY    81  37  21 NE5       29.94R
KINGMAN        MOCLDY    58  40  51 SE6       30.10R
$$

AZZ004>008-015-016-018-230500-
NORTH CENTRAL ARIZONA

CITY           SKY/WX    TMP DP  RH WIND       PRES   REMARKS
GRAND CANYON   CLEAR     39  27  62 CALM      30.27R
PRESCOTT       CLEAR     57  38  48 S7        30.18R
FLAGSTAFF      CLEAR     42  32  67 CALM      30.30R
PAYSON         CLEAR     59  43  55 CALM      30.21R
PAGE           CLEAR     66  35  31 SW5       30.13R
$$

AZZ009>014-017-230500-
NORTHEAST ARIZONA

CITY           SKY/WX    TMP DP  RH WIND       PRES   REMARKS
WINSLOW        CLEAR     56  34  43 SW5       30.17R
SAINT JOHNS    CLEAR     54  42  64 S3        30.21R
WINDOW ROCK    CLEAR     52  33  48 CALM      30.27R
SHOW LOW       CLEAR     50  41  71 S7        30.28R
$$

AZZ023-230500-
GREATER PHOENIX AREA

CITY           SKY/WX    TMP DP  RH WIND       PRES   REMARKS
PHOENIX        CLEAR     78  55  44 SW5       29.92S
BUCKEYE          N/A     72  45  37 N7        29.94R
LUKE AFB       CLEAR     73  55  53 CALM      29.93R
DEER VALLEY    CLEAR     74  50  42 CALM      29.95S
SCOTTSDALE     CLEAR     78  50  37 NE3       29.97R
MESA-GATEWAY   CLEAR     72  52  49 CALM      29.97R
CHANDLER       PTCLDY    75  52  43 CALM      29.94S
$$

AZZ027-028-230500-
SOUTHWEST MARICOPA COUNTY AND PINAL COUNTY

CITY           SKY/WX    TMP DP  RH WIND       PRES   REMARKS
CASA GRANDE    CLEAR     73  46  38 CALM      29.96R
GILA BEND      CLEAR     73  46  38 S3        29.93S
$$

AZZ503-504-507>509-230500-
SOUTHEAST ARIZONA

CITY           SKY/WX    TMP DP  RH WIND       PRES   REMARKS
TUCSON         CLEAR     76  48  37 W6        30.03R
DAVIS-MONTHAN  CLEAR     72  49  44 W6        30.01S
NOGALES        CLEAR     63  46  54 SE3       30.09R
SIERRA VISTA   CLEAR     63  43  48 SW6       30.15R
DOUGLAS        CLEAR     60  46  59 NE6       30.11S
SAFFORD        CLEAR     65  53  65 E6        30.05R
$$

AZZ020-021-025-026-031-230500-
SOUTHWEST ARIZONA

CITY           SKY/WX    TMP DP  RH WIND       PRES   REMARKS
YUMA           PTCLDY    82  49  31 W5        29.89R
$$

CAZ031-033-041-043-047-048-061-230500-
SOUTHERN CALIFORNIA

CITY           SKY/WX    TMP DP  RH WIND       PRES   REMARKS
DOWNTOWN L.A.  PTCLDY    68  62  81 CALM      29.94R
L.A. AIRPORT   PTCLDY    68  64  87 W6        29.94S
SAN DIEGO      CLEAR     70  62  76 CALM      29.95R
BURBANK        PTCLDY    71  55  56 CALM      29.95R
ONTARIO        MOCLDY    72  58  61 W5        29.96R
RIVERSIDE      PTCLDY    73  51  46 CALM      29.96R
PALM SPRINGS   CLEAR     78  30  17 N9        29.94R
EL CENTRO NAS  PTCLDY    77  47  34 N5        29.87S
IMPERIAL       CLEAR     79  52  38 N3        29.87R
BLYTHE         CLEAR     81  45  28 NW5       29.90R
NEEDLES        PTCLDY    80  41  24 W7        29.94R
$$

NVZ020-UTZ003-230500-
SOUTHERN NEVADA-UTAH

CITY           SKY/WX    TMP DP  RH WIND       PRES   REMARKS
LAS VEGAS      MOCLDY    73  31  21 W5        29.98S
SALT LAKE CITY MOCLDY    49  34  56 S6        30.17S
$$

NMZ009-TXZ055-230500-
NEW MEXICO-WEST TEXAS

CITY           SKY/WX    TMP DP  RH WIND       PRES   REMARKS
ALBUQUERQUE    CLEAR     59  40  49 S6        30.18R
EL PASO        CLEAR     67  55  65 N3        30.12R
$$


........................KEY........................
SKY/WX - SKY CONDITION/WEATHER
TMP    - TEMPERATURE IN FAHRENHEIT
DP     - DEW POINT IN FAHRENHEIT
RH     - RELATIVE HUMIDITY IN PERCENT
WIND   - DIRECTION AND SPEED IN MILES PER HOUR (MPH)
VRB    - VARIABLE WIND DIRECTION
PRES   - MEAN SEA LEVEL PRESSURE IN INCHES OF MERCURY
         F - FALLING PRESSURE   R - RISING PRESSURE
         S - STEADY PRESSURE
VSB    - VISIBILITY IN MILES
HX     - HEAT INDEX IN FAHRENHEIT
WCI    - WIND CHILL INDEX IN FAHRENHEIT
TC     - TEMPERATURE IN CELSIUS WHICH IS ALSO KNOWN AS
         TEMPERATURE IN CENTIGRADE
AFB    - AIR FORCE BASE
         LUKE AFB IS LUKE AIR FORCE BASE
         DAVIS-MONTHAN IS DAVIS-MONTHAN AIR FORCE BASE
NAS    - NAVAL AIR STATION
         EL CENTRO NAS IS EL CENTRO NAVAL AIR STATION
N/A    - NOT AVAILABLE



USA.gov is the U.S. government's official web portal to all federal, state and local government web resources and services.